Regional Weather Roundup
Issued by NWS

Home | Current Version | Previous Version | Text Only | Print | Product List | Glossary Off
Versions: 1 2 3 4 5 6 7 8 9 10 11 12 13 14 15 16 17 18 19 20 21 22 23 24 25

000
ASUS45 KCYS 221310
RWRWY

WYOMING REGIONAL WEATHER ROUNDUP
NATIONAL WEATHER SERVICE CHEYENNE WY
700 AM MDT WED MAR 22 2017

NOTE:  "FAIR" INDICATES FEW OR NO CLOUDS BELOW 12,000 FEET
WITH NO SIGNIFICANT WEATHER AND/OR OBSTRUCTIONS TO VISIBILITY.

WYZ001-221400-
YELLOWSTONE NATIONAL PARK

CITY           SKY/WX    TMP DP  RH WIND       PRES   REMARKS
LK YELLOWSTONE   N/A     33  33 100 VRB3      29.99S
W YELLOWSTONE  NOT AVBL

$$
WYZ002>013-054>058-071-098>099-221400-
NORTHERN WYOMING

CITY           SKY/WX    TMP DP  RH WIND       PRES   REMARKS
JACKSON        MOCLDY    37  37 100 SW9       29.96F WCI  31
CODY           FAIR      49  34  56 S9        29.84R
GREYBULL       CLOUDY    37  36  96 N8        29.83R WCI  31
WORLAND        FAIR      34  34 100 N5        29.81R WCI  30
SHERIDAN       CLOUDY    35  34  96 W7        29.81R WCI  29
BUFFALO        FAIR      46  35  65 VRB6G29   29.77S
GILLETTE       FAIR      34  31  88 S31       29.81F WCI  20
HULETT         FAIR      41  32  70 W7        29.84S
NEWCASTLE      FAIR      36  28  75 SE17      29.94S WCI  25

$$
WYZ014>020-022>026-101>103-221400-
CENTRAL WYOMING

CITY           SKY/WX    TMP DP  RH WIND       PRES   REMARKS
BIG PINEY      CLOUDY    34  32  92 CALM      29.98R
PINEDALE       CLOUDY    34  32  93 N5        30.00R WCI  30
DUBOIS         PTSUNNY   37  34  87 NW13G20   29.94R WCI  29
LANDER         MOCLDY    45  34  65 E8        29.83S
RIVERTON       FAIR      35  33  92 N7        29.86S WCI  29
CASPER         FAIR      41  34  76 W8        29.89R
DOUGLAS        FAIR      35  30  82 SE12      29.93S WCI  27

$$
WYZ021-027>030-104>119-221400-
SOUTHERN WYOMING

CITY           SKY/WX    TMP DP  RH WIND       PRES   REMARKS
EVANSTON       RAIN      40  36  86 W8        30.00S FOG     WCI  34
KEMMERER         N/A     37  36  93 CALM      30.00S
FORT BRIDGER   CLOUDY    42  37  84 W3        30.02R
ROCK SPRINGS   LGT RAIN  42  32  67 W3        30.00R
DIXON            N/A     47  31  51 CALM      30.02F
RAWLINS        FAIR      48  24  39 W15       29.99R
SARATOGA       FAIR      50  28  43 S7        30.02R
LARAMIE        FAIR      47  26  44 SW15      30.00S
CHEYENNE       FAIR      29  25  85 S9        30.04R WCI  20
TORRINGTON     FAIR      35  27  72 SE17      30.00F WCI  25
PINE BLUFFS    FAIR      32  25  74 S15G23    30.05S WCI  22

$$




USA.gov is the U.S. government's official web portal to all federal, state and local government web resources and services.